Regional Weather Roundup
Issued by NWS Bismarck, ND

Home | Current Version | Previous Version | Text Only | Print | Product List | Glossary On
Versions: 1 2 3 4 5 6 7 8 9 10 11 12 13 14 15 16 17 18 19 20 21 22 23 24 25 26 27 28 29 30 31 32 33 34 35 36 37 38 39 40 41 42 43 44 45 46 47 48 49 50
000
ASUS43 KBIS 111902
RWRBIS

NWR BROADCAST TEXT
NATIONAL WEATHER SERVICE BISMARCK ND
100 PM CST THU FEB 11 2016

NOTE: "FAIR" INDICATES FEW OR NO CLOUDS BELOW 12,000 FEET WITH NO
SIGNIFICANT WEATHER AND/OR OBSTRUCTIONS TO VISIBILITY.


CITY           SKY/WX    TMP DP  RH WIND       PRES   REMARKS
WILLISTON      LGT SNOW  26  20  77 N6        30.16R WCI  19
MINOT          CLOUDY    20  10  65 N5        30.17S HAZE    WCI  13
MINOT AFB      NOT AVBL
BISMARCK       LGT SNOW  25  18  74 NE5       30.14R WCI  19
DICKINSON      LGT SNOW  24  19  81 NE9       30.06R WCI  14
GARRISON         N/A     19  12  74 VRB3      30.14S
HETTINGER ARPT LGT SNOW  31  28  89 NE8       30.03R FOG
JAMESTOWN      CLOUDY    14   9  80 CALM      30.16F
CARRINGTON     CLOUDY    14  10  85 CALM      30.18F
HAZEN          LGT SNOW  19  16  86 NE7       30.16R WCI  10
LINTON         CLOUDY    23  21  93 SE5       30.13F FOG     WCI  17
MANDAN         LGT SNOW  21  18  86 NE5       30.12S WCI  15
OAKES          CLOUDY    16  10  79 CALM      30.18S
STANLEY        FAIR      18  14  86 VRB6      30.16R WCI   9
WATFORD CITY   LGT SNOW  23  19  86 NE3       30.14S
$$

CITY           SKY/WX    TMP DP  RH WIND       PRES   REMARKS
GRAND FORKS    CLOUDY    13   4  67 SW8       30.23F WCI   2
GRAND FORKS AF FLURRIES  14   4  64 SW6       30.22F WCI   5
DEVILS LAKE    FLURRIES  11   6  81 N5        30.19S WCI   3
FARGO          CLOUDY    14  -2  49 SW6       30.23F WCI   5
GRAFTON        FLURRIES  12   7  79 W6        30.25F WCI   3
GWINNER        CLOUDY    16  10  79 E6        30.20S WCI   7
LANGDON        CLOUDY    12   5  73 NW7       30.17S WCI   2
$$

CITY           SKY/WX    TMP DP  RH WIND       PRES   REMARKS
ABERDEEN       LGT SNOW  21  16  81 S7        30.17F WCI  12
MOBRIDGE       LGT SNOW  26  22  84 SE8       30.06F VSB 1   WCI  18
BUFFALO          N/A     41  35  79 NW31G37   29.93R
RAPID CITY     SUNNY     57  25  29 NW40G52   29.99S
GLASGOW        CLOUDY    30  24  78 E7        30.14S
SIDNEY         CLOUDY    27  21  80 N10       30.15R WCI  17
WOLF POINT     CLOUDY    29  21  72 E10       30.17R WCI  20
GLENDIVE       CLOUDY    28  27  93 NE8       30.13R
MILES CITY     PTSUNNY   49  31  49 NW25G31   30.09R
BAKER          CLOUDY    34  30  85 NW17      30.06R
$$

CITY           SKY/WX    TMP DP  RH WIND       PRES   REMARKS
BILLINGS       MOSUNNY   58  19  22 NW24G35   30.17R
GREAT FALLS    SUNNY     56  20  24 W16G22    30.19R
$$




USA.gov is the U.S. government's official web portal to all federal, state and local government web resources and services.